This is the latest recevied weather packets stored in our database for station/object VA3VWX-13. If no packets are shown the sender has not sent any weather packets the latest 10 day(s).
| Time | Temp. | Humidity | Pressure | Rain* | Wind** | Luminosity | Snow |
|---|---|---|---|---|---|---|---|
| 1777818503 | 7.22° C | 68% | 1013.3 hPa | 0 mm | - | - | - |
| 1777818211 | 7.22° C | 67% | 1013.3 hPa | 0 mm | - | - | - |
| 1777817919 | 7.22° C | 67% | 1013.3 hPa | 0 mm | - | - | - |
| 1777817622 | 7.22° C | 65% | 1013.3 hPa | 0 mm | - | - | - |
| 1777817329 | 7.78° C | 65% | 1013.3 hPa | 0 mm | - | - | - |
| 1777817020 | 7.78° C | 64% | 1013.3 hPa | 0 mm | - | - | - |
| 1777816708 | 8.33° C | 62% | 1013.2 hPa | 0 mm | - | - | - |
| 1777816416 | 8.33° C | 60% | 1013.3 hPa | 0 mm | - | - | - |
| 1777816114 | 8.33° C | 55% | 1013.3 hPa | 0 mm | - | - | - |
| 1777815809 | 7.78° C | 55% | 1013.4 hPa | 0 mm | - | - | - |
| 1777815515 | 7.78° C | 57% | 1013.4 hPa | 0 mm | - | - | - |
| 1777815212 | 7.78° C | 57% | 1013.5 hPa | 0 mm | - | - | - |
| 1777814920 | 7.78° C | 57% | 1013.6 hPa | 0 mm | - | - | - |
| 1777814606 | 7.22° C | 57% | 1013.6 hPa | 0 mm | - | - | - |
| 1777814304 | 7.22° C | 57% | 1013.5 hPa | 0 mm | - | - | - |
| 1777814007 | 7.22° C | 58% | 1013.7 hPa | 0 mm | - | - | - |
| 1777813714 | 6.67° C | 59% | 1013.6 hPa | 0 mm | - | - | - |
| 1777813431 | 6.67° C | 59% | 1013.7 hPa | 0 mm | - | - | - |
| 1777813110 | 6.67° C | 60% | 1013.7 hPa | 0 mm | - | - | - |
| 1777812817 | 6.67° C | 61% | 1013.6 hPa | 0 mm | - | - | - |
| 1777812503 | 6.11° C | 61% | 1013.5 hPa | 0 mm | - | - | - |
| 1777812230 | 6.11° C | 62% | 1013.5 hPa | 0 mm | - | - | - |
| 1777811908 | 6.11° C | 62% | 1013.5 hPa | 0 mm | - | - | - |
| 1777811616 | 6.11° C | 62% | 1013.6 hPa | 0 mm | - | - | - |
| 1777811323 | 6.11° C | 62% | 1013.4 hPa | 0 mm | - | - | - |
* Rain latest hour (hover to see other rain measurements)
** Current wind speed in m/s (hover to see current wind gust speed)